Time,TemperatureF,DewpointF,PressureIn,WindDirection,WindDirectionDegrees,WindSpeedMPH,WindSpeedGustMPH,Humidity,HourlyPrecipIn,Conditions,Clouds,dailyrainin,SoftwareType,DateUTC
2013-03-14 00:00:00,32.4,23.4,30.31,SE,141,1.0,2.0,69,0.00,,,0.00,Wunderground v.1.15,2013-03-14 05:00:00,
2013-03-14 00:05:00,32.3,23.6,30.31,SE,141,1.0,2.0,70,0.00,,,0.00,Wunderground v.1.15,2013-03-14 05:05:00,
2013-03-14 00:15:00,32.0,23.3,30.30,SSE,149,1.0,1.0,70,0.00,,,0.00,Wunderground v.1.15,2013-03-14 05:15:00,
2013-03-14 00:25:00,31.8,23.5,30.30,SSE,160,2.0,3.0,71,0.00,,,0.00,Wunderground v.1.15,2013-03-14 05:25:00,
2013-03-14 00:35:00,31.7,23.4,30.30,SE,138,1.0,1.0,71,0.00,,,0.00,Wunderground v.1.15,2013-03-14 05:35:00,
2013-03-14 00:40:00,31.7,23.4,30.30,SE,129,2.0,2.0,71,0.00,,,0.00,Wunderground v.1.15,2013-03-14 05:40:00,
2013-03-14 00:50:00,31.8,23.5,30.29,SE,128,1.0,2.0,71,0.00,,,0.00,Wunderground v.1.15,2013-03-14 05:50:00,
2013-03-14 01:00:00,31.8,23.8,30.28,SE,141,1.0,3.0,72,0.00,,,0.00,Wunderground v.1.15,2013-03-14 06:00:00,
2013-03-14 01:05:00,31.8,23.8,30.28,SSE,153,1.0,3.0,72,0.00,,,0.00,Wunderground v.1.15,2013-03-14 06:05:00,
2013-03-14 01:10:00,31.8,23.5,30.28,SE,129,2.0,2.0,71,0.00,,,0.00,Wunderground v.1.15,2013-03-14 06:10:00,
2013-03-14 01:20:00,32.0,23.7,30.27,SE,143,2.0,3.0,71,0.00,,,0.00,Wunderground v.1.15,2013-03-14 06:20:00,
2013-03-14 01:30:00,32.0,23.7,30.26,SSE,157,2.0,2.0,71,0.00,,,0.00,Wunderground v.1.15,2013-03-14 06:30:00,
2013-03-14 01:35:00,32.2,23.8,30.26,SSE,163,2.0,3.0,71,0.00,,,0.00,Wunderground v.1.15,2013-03-14 06:35:00,
2013-03-14 01:45:00,32.8,23.7,30.26,South,172,3.0,6.0,69,0.00,,,0.00,Wunderground v.1.15,2013-03-14 06:45:00,
2013-03-14 01:55:00,33.3,23.9,30.26,SSE,166,4.0,5.0,68,0.00,,,0.00,Wunderground v.1.15,2013-03-14 06:55:00,
2013-03-14 02:05:00,33.4,24.0,30.25,SSE,156,4.0,5.0,68,0.00,,,0.00,Wunderground v.1.15,2013-03-14 07:05:00,
2013-03-14 02:10:00,33.6,24.2,30.25,South,169,4.0,5.0,68,0.00,,,0.00,Wunderground v.1.15,2013-03-14 07:10:00,
2013-03-14 02:20:00,33.8,24.0,30.23,SSE,150,3.0,4.0,67,0.00,,,0.00,Wunderground v.1.15,2013-03-14 07:20:00,
2013-03-14 02:30:00,34.0,24.2,30.23,South,177,3.0,3.0,67,0.00,,,0.00,Wunderground v.1.15,2013-03-14 07:30:00,
2013-03-14 02:35:00,34.0,24.2,30.23,SE,124,3.0,5.0,67,0.00,,,0.00,Wunderground v.1.15,2013-03-14 07:35:00,
2013-03-14 02:40:00,34.0,24.2,30.22,SSE,158,3.0,5.0,67,0.00,,,0.00,Wunderground v.1.15,2013-03-14 07:40:00,
2013-03-14 02:55:00,33.9,24.1,30.22,SE,143,2.0,2.0,67,0.00,,,0.00,Wunderground v.1.15,2013-03-14 07:55:00,
2013-03-14 03:00:00,34.0,24.2,30.22,SE,142,2.0,2.0,67,0.00,,,0.00,Wunderground v.1.15,2013-03-14 08:00:00,
2013-03-14 03:10:00,34.2,24.7,30.22,SSE,153,2.0,2.0,68,0.00,,,0.00,Wunderground v.1.15,2013-03-14 08:10:00,
2013-03-14 03:25:00,34.3,24.8,30.21,SE,142,2.0,3.0,68,0.00,,,0.00,Wunderground v.1.15,2013-03-14 08:25:00,
2013-03-14 03:30:00,34.4,24.9,30.21,SSE,160,2.0,2.0,68,0.00,,,0.00,Wunderground v.1.15,2013-03-14 08:30:00,
2013-03-14 03:36:00,34.5,24.7,30.21,SSE,158,2.0,2.0,67,0.00,,,0.00,Wunderground v.1.15,2013-03-14 08:36:00,
2013-03-14 03:45:00,34.7,24.9,30.21,SSE,149,2.0,4.0,67,0.00,,,0.00,Wunderground v.1.15,2013-03-14 08:45:00,
2013-03-14 03:55:00,34.7,25.2,30.20,SE,141,2.0,2.0,68,0.00,,,0.00,Wunderground v.1.15,2013-03-14 08:55:00,
2013-03-14 04:00:00,34.6,25.1,30.20,SSE,156,2.0,3.0,68,0.00,,,0.00,Wunderground v.1.15,2013-03-14 09:00:00,
2013-03-14 04:10:00,34.5,25.4,30.19,ESE,123,1.0,1.0,69,0.00,,,0.00,Wunderground v.1.15,2013-03-14 09:10:00,
2013-03-14 04:20:00,34.3,25.2,30.19,East,98,1.0,1.0,69,0.00,,,0.00,Wunderground v.1.15,2013-03-14 09:20:00,
2013-03-14 04:30:00,34.3,25.5,30.18,SE,129,2.0,2.0,70,0.00,,,0.00,Wunderground v.1.15,2013-03-14 09:30:00,
2013-03-14 04:35:00,34.3,25.5,30.18,SSE,165,2.0,2.0,70,0.00,,,0.00,Wunderground v.1.15,2013-03-14 09:35:00,
2013-03-14 04:45:00,34.4,25.6,30.18,SE,145,3.0,4.0,70,0.00,,,0.00,Wunderground v.1.15,2013-03-14 09:45:00,
2013-03-14 04:50:00,34.3,25.5,30.17,SSE,153,2.0,3.0,70,0.00,,,0.00,Wunderground v.1.15,2013-03-14 09:50:00,
2013-03-14 04:55:00,34.3,25.5,30.16,SE,139,2.0,3.0,70,0.00,,,0.00,Wunderground v.1.15,2013-03-14 09:55:00,
2013-03-14 05:05:00,34.3,25.5,30.17,SE,125,2.0,2.0,70,0.00,,,0.00,Wunderground v.1.15,2013-03-14 10:05:00,
2013-03-14 05:11:00,34.3,25.9,30.17,South,169,2.0,2.0,71,0.00,,,0.00,Wunderground v.1.15,2013-03-14 10:11:00,
2013-03-14 05:25:00,34.1,25.7,30.16,South,176,2.0,3.0,71,0.00,,,0.00,Wunderground v.1.15,2013-03-14 10:25:00,
2013-03-14 05:30:00,33.9,25.5,30.16,SE,136,2.0,3.0,71,0.00,,,0.00,Wunderground v.1.15,2013-03-14 10:30:00,
2013-03-14 05:40:00,33.7,25.6,30.16,SSE,156,2.0,2.0,72,0.00,,,0.00,Wunderground v.1.15,2013-03-14 10:40:00,
2013-03-14 05:50:00,33.7,25.6,30.15,SE,146,2.0,2.0,72,0.00,,,0.00,Wunderground v.1.15,2013-03-14 10:50:00,
2013-03-14 05:55:00,33.7,26.0,30.15,SSE,167,2.0,4.0,73,0.00,,,0.00,Wunderground v.1.15,2013-03-14 10:55:00,
2013-03-14 06:05:00,33.6,25.9,30.15,SSE,153,3.0,3.0,73,0.00,,,0.00,Wunderground v.1.15,2013-03-14 11:05:00,
2013-03-14 06:15:00,33.4,26.0,30.15,SSE,163,1.0,2.0,74,0.00,,,0.00,Wunderground v.1.15,2013-03-14 11:15:00,
2013-03-14 06:25:00,33.2,25.8,30.14,SE,143,1.0,1.0,74,0.00,,,0.00,Wunderground v.1.15,2013-03-14 11:25:00,
2013-03-14 06:30:00,33.1,26.0,30.14,SSE,155,1.0,1.0,75,0.00,,,0.00,Wunderground v.1.15,2013-03-14 11:30:00,
2013-03-14 06:35:00,33.1,26.0,30.14,SE,125,1.0,1.0,75,0.00,,,0.00,Wunderground v.1.15,2013-03-14 11:35:00,
2013-03-14 06:45:00,33.2,26.1,30.13,SSE,158,2.0,2.0,75,0.00,,,0.00,Wunderground v.1.15,2013-03-14 11:45:00,
2013-03-14 06:55:00,33.2,26.1,30.13,SSW,213,2.0,2.0,75,0.00,,,0.00,Wunderground v.1.15,2013-03-14 11:55:00,
2013-03-14 07:10:00,33.2,26.1,30.13,SE,139,1.0,1.0,75,0.00,,,0.00,Wunderground v.1.15,2013-03-14 12:10:00,
2013-03-14 07:15:00,33.0,26.3,30.13,SE,135,0.0,1.0,76,0.00,,,0.00,Wunderground v.1.15,2013-03-14 12:15:00,
2013-03-14 07:25:00,32.9,26.2,30.13,SE,125,0.0,1.0,76,0.00,,,0.00,Wunderground v.1.15,2013-03-14 12:25:00,
2013-03-14 07:30:00,32.9,26.2,30.13,SSE,158,1.0,1.0,76,0.00,,,0.00,Wunderground v.1.15,2013-03-14 12:30:00,
2013-03-14 07:35:00,32.9,26.2,30.12,SE,139,1.0,1.0,76,0.00,,,0.00,Wunderground v.1.15,2013-03-14 12:35:00,
2013-03-14 07:45:00,33.0,26.3,30.13,SE,139,1.0,2.0,76,0.00,,,0.00,Wunderground v.1.15,2013-03-14 12:45:00,
2013-03-14 07:50:00,33.1,26.4,30.13,SSE,162,1.0,1.0,76,0.00,,,0.00,Wunderground v.1.15,2013-03-14 12:50:00,
2013-03-14 08:00:00,33.1,26.4,30.13,SSE,156,1.0,1.0,76,0.00,,,0.00,Wunderground v.1.15,2013-03-14 13:00:00,
2013-03-14 08:10:00,33.2,26.5,30.13,South,172,1.0,1.0,76,0.00,,,0.00,Wunderground v.1.15,2013-03-14 13:10:00,
2013-03-14 08:15:00,33.3,26.5,30.13,SSE,152,1.0,1.0,76,0.00,,,0.00,Wunderground v.1.15,2013-03-14 13:15:00,
2013-03-14 08:25:00,33.6,26.8,30.13,South,190,1.0,1.0,76,0.00,,,0.00,Wunderground v.1.15,2013-03-14 13:25:00,
2013-03-14 08:35:00,34.2,27.1,30.13,South,185,1.0,2.0,75,0.00,,,0.00,Wunderground v.1.15,2013-03-14 13:35:00,
2013-03-14 08:40:00,34.4,27.0,30.13,SSW,195,1.0,1.0,74,0.00,,,0.00,Wunderground v.1.15,2013-03-14 13:40:00,
2013-03-14 08:50:00,34.9,27.1,30.13,SE,143,1.0,2.0,73,0.00,,,0.00,Wunderground v.1.15,2013-03-14 13:50:00,
2013-03-14 09:00:00,35.3,27.2,30.14,SSW,208,1.0,2.0,72,0.00,,,0.00,Wunderground v.1.15,2013-03-14 14:00:00,
2013-03-14 09:05:00,35.4,27.6,30.14,SW,219,0.0,2.0,73,0.00,,,0.00,Wunderground v.1.15,2013-03-14 14:05:00,
2013-03-14 09:15:00,35.9,27.7,30.13,SSE,150,1.0,2.0,72,0.00,,,0.00,Wunderground v.1.15,2013-03-14 14:15:00,
2013-03-14 09:21:00,36.2,27.7,30.13,SE,134,1.0,1.0,71,0.00,,,0.00,Wunderground v.1.15,2013-03-14 14:21:00,
2013-03-14 09:27:00,36.6,27.7,30.13,SW,232,1.0,1.0,70,0.00,,,0.00,VPLive 1.2.5.27,2013-03-14 14:27:00,
2013-03-14 09:32:00,36.9,28.0,30.13,SW,223,1.0,3.0,70,0.00,,,0.00,VPLive 1.2.5.27,2013-03-14 14:32:00,
2013-03-14 09:37:00,37.1,28.2,30.14,WSW,243,0.0,2.0,70,0.00,,,0.00,VPLive 1.2.5.27,2013-03-14 14:37:00,
2013-03-14 09:42:00,37.5,28.6,30.14,SSW,195,2.0,3.0,70,0.00,,,0.00,VPLive 1.2.5.27,2013-03-14 14:42:00,
2013-03-14 09:47:00,37.9,28.6,30.14,WSW,248,0.0,3.0,69,0.00,,,0.00,VPLive 1.2.5.27,2013-03-14 14:47:00,
2013-03-14 09:52:00,38.3,29.0,30.14,WSW,252,0.0,1.0,69,0.00,,,0.00,VPLive 1.2.5.27,2013-03-14 14:52:00,
2013-03-14 09:57:00,38.6,28.6,30.14,WSW,253,2.0,3.0,67,0.00,,,0.00,VPLive 1.2.5.27,2013-03-14 14:57:00,
2013-03-14 10:05:00,39.2,29.2,30.14,SW,222,1.0,2.0,67,0.00,,,0.00,Wunderground v.1.15,2013-03-14 15:05:00,
2013-03-14 10:10:00,39.3,28.9,30.14,WSW,248,1.0,2.0,66,0.00,,,0.00,Wunderground v.1.15,2013-03-14 15:10:00,
2013-03-14 10:15:00,39.5,29.4,30.14,SW,231,2.0,3.0,67,0.00,,,0.00,Wunderground v.1.15,2013-03-14 15:15:00,
2013-03-14 10:25:00,39.8,29.7,30.14,West,272,2.0,2.0,67,0.00,,,0.00,Wunderground v.1.15,2013-03-14 15:25:00,
2013-03-14 10:35:00,40.0,29.9,30.14,West,259,1.0,1.0,67,0.00,,,0.00,Wunderground v.1.15,2013-03-14 15:35:00,
2013-03-14 10:41:00,40.2,30.1,30.14,NW,310,1.0,1.0,67,0.00,,,0.00,Wunderground v.1.15,2013-03-14 15:41:00,
2013-03-14 10:50:00,40.7,30.6,30.14,West,262,1.0,1.0,67,0.00,,,0.00,Wunderground v.1.15,2013-03-14 15:50:00,
2013-03-14 11:00:00,41.6,31.1,30.14,West,264,1.0,1.0,66,0.00,,,0.00,Wunderground v.1.15,2013-03-14 16:00:00,
2013-03-14 11:10:00,42.1,31.2,30.13,SW,214,1.0,1.0,65,0.00,,,0.00,Wunderground v.1.15,2013-03-14 16:10:00,
2013-03-14 11:16:00,42.6,31.7,30.14,West,266,1.0,2.0,65,0.00,,,0.01,Wunderground v.1.15,2013-03-14 16:16:00,
2013-03-14 11:25:00,43.5,31.7,30.13,West,259,1.0,1.0,63,0.00,,,0.01,Wunderground v.1.15,2013-03-14 16:25:00,
2013-03-14 11:30:00,44.1,32.3,30.14,SW,222,1.0,1.0,63,0.00,,,0.01,Wunderground v.1.15,2013-03-14 16:30:00,
2013-03-14 11:41:00,45.3,33.0,30.14,WNW,291,2.0,2.0,62,0.00,,,0.01,Wunderground v.1.15,2013-03-14 16:41:00,
2013-03-14 11:50:00,46.7,33.5,30.13,WNW,302,1.0,2.0,60,0.00,,,0.01,Wunderground v.1.15,2013-03-14 16:50:00,
2013-03-14 11:55:00,47.5,33.9,30.14,NW,311,1.0,2.0,59,0.00,,,0.01,Wunderground v.1.15,2013-03-14 16:55:00,
2013-03-14 12:05:00,49.3,34.3,30.13,NW,318,3.0,3.0,56,0.00,,,0.02,Wunderground v.1.15,2013-03-14 17:05:00,
2013-03-14 12:10:00,49.9,34.4,30.13,NW,319,3.0,3.0,55,0.00,,,0.02,Wunderground v.1.15,2013-03-14 17:10:00,
2013-03-14 12:21:00,50.8,34.7,30.14,NNW,337,3.0,5.0,54,0.00,,,0.02,Wunderground v.1.15,2013-03-14 17:21:00,
2013-03-14 12:30:00,50.8,34.3,30.14,NW,310,3.0,3.0,53,0.00,,,0.02,Wunderground v.1.15,2013-03-14 17:30:00,
2013-03-14 12:40:00,51.0,34.5,30.14,NW,325,3.0,4.0,53,0.00,,,0.02,Wunderground v.1.15,2013-03-14 17:40:00,
2013-03-14 12:45:00,51.0,34.5,30.14,NW,325,3.0,3.0,53,0.00,,,0.02,Wunderground v.1.15,2013-03-14 17:45:00,
2013-03-14 12:50:00,51.0,34.5,30.14,NNW,333,3.0,3.0,53,0.00,,,0.02,Wunderground v.1.15,2013-03-14 17:50:00,
2013-03-14 13:00:00,51.6,35.0,30.14,NW,314,2.0,3.0,53,0.00,,,0.02,Wunderground v.1.15,2013-03-14 18:00:00,
2013-03-14 13:05:00,51.8,35.2,30.15,NW,316,2.0,3.0,53,0.00,,,0.02,Wunderground v.1.15,2013-03-14 18:05:00,
2013-03-14 13:15:00,52.2,35.1,30.15,NW,312,3.0,3.0,52,0.00,,,0.02,Wunderground v.1.15,2013-03-14 18:15:00,
2013-03-14 13:20:00,52.6,35.9,30.15,NW,311,2.0,2.0,53,0.00,,,0.02,Wunderground v.1.15,2013-03-14 18:20:00,
2013-03-14 13:30:00,52.8,35.6,30.16,NNW,335,3.0,3.0,52,0.00,,,0.02,Wunderground v.1.15,2013-03-14 18:30:00,
2013-03-14 13:35:00,53.0,35.3,30.15,NW,321,3.0,3.0,51,0.00,,,0.02,Wunderground v.1.15,2013-03-14 18:35:00,
2013-03-14 13:40:00,52.9,35.7,30.15,West,273,3.0,3.0,52,0.00,,,0.02,Wunderground v.1.15,2013-03-14 18:40:00,
2013-03-14 13:55:00,53.6,35.9,30.15,WNW,300,2.0,4.0,51,0.00,,,0.02,Wunderground v.1.15,2013-03-14 18:55:00,
2013-03-14 14:00:00,53.8,36.1,30.15,NW,315,2.0,3.0,51,0.00,,,0.02,Wunderground v.1.15,2013-03-14 19:00:00,
2013-03-14 14:10:00,54.3,36.5,30.15,WNW,284,2.0,2.0,51,0.00,,,0.02,Wunderground v.1.15,2013-03-14 19:10:00,
2013-03-14 14:20:00,54.8,36.5,30.15,NW,313,2.0,2.0,50,0.00,,,0.02,Wunderground v.1.15,2013-03-14 19:20:00,
2013-03-14 14:30:00,55.9,37.0,30.15,NW,322,1.0,2.0,49,0.00,,,0.02,Wunderground v.1.15,2013-03-14 19:30:00,
2013-03-14 14:40:00,55.9,37.5,30.14,WNW,302,1.0,1.0,50,0.00,,,0.02,Wunderground v.1.15,2013-03-14 19:40:00,
2013-03-14 14:50:00,56.9,37.4,30.14,NNW,332,1.0,2.0,48,0.00,,,0.02,Wunderground v.1.15,2013-03-14 19:50:00,
2013-03-14 15:00:00,56.5,37.6,30.14,NNE,33,1.0,1.0,49,0.00,,,0.02,Wunderground v.1.15,2013-03-14 20:00:00,
2013-03-14 15:10:00,56.1,37.7,30.13,ENE,67,1.0,1.0,50,0.00,,,0.02,Wunderground v.1.15,2013-03-14 20:10:00,
2013-03-14 15:15:00,55.8,37.9,30.13,NNE,18,1.0,1.0,51,0.00,,,0.02,Wunderground v.1.15,2013-03-14 20:15:00,
2013-03-14 15:25:00,56.2,37.8,30.13,West,281,1.0,2.0,50,0.00,,,0.02,Wunderground v.1.15,2013-03-14 20:25:00,
2013-03-14 15:30:00,55.8,37.4,30.13,NNE,33,1.0,2.0,50,0.00,,,0.02,Wunderground v.1.15,2013-03-14 20:30:00,
2013-03-14 15:40:00,55.9,38.0,30.13,East,95,1.0,1.0,51,0.00,,,0.02,Wunderground v.1.15,2013-03-14 20:40:00,
2013-03-14 15:45:00,56.1,38.2,30.13,NW,321,1.0,2.0,51,0.00,,,0.02,Wunderground v.1.15,2013-03-14 20:45:00,
2013-03-14 15:55:00,56.1,38.2,30.13,NW,319,1.0,3.0,51,0.00,,,0.02,Wunderground v.1.15,2013-03-14 20:55:00,
2013-03-14 16:00:00,56.2,38.3,30.13,NE,44,1.0,1.0,51,0.00,,,0.02,Wunderground v.1.15,2013-03-14 21:00:00,
2013-03-14 16:06:00,56.4,38.5,30.13,NNE,25,1.0,3.0,51,0.00,,,0.02,Wunderground v.1.15,2013-03-14 21:06:00,
2013-03-14 16:15:00,55.9,38.5,30.13,NNE,18,1.0,1.0,52,0.00,,,0.02,Wunderground v.1.15,2013-03-14 21:15:00,
2013-03-14 16:20:00,55.9,38.5,30.13,NNE,33,1.0,3.0,52,0.00,,,0.02,Wunderground v.1.15,2013-03-14 21:20:00,
2013-03-14 16:30:00,55.7,39.3,30.13,North,349,1.0,1.0,54,0.00,,,0.02,Wunderground v.1.15,2013-03-14 21:30:00,
2013-03-14 16:35:00,55.8,38.9,30.13,NE,35,1.0,1.0,53,0.00,,,0.02,Wunderground v.1.15,2013-03-14 21:35:00,
2013-03-14 16:45:00,55.5,38.6,30.13,NE,50,1.0,1.0,53,0.00,,,0.02,Wunderground v.1.15,2013-03-14 21:45:00,
2013-03-14 16:55:00,55.6,38.7,30.13,NW,320,1.0,2.0,53,0.00,,,0.02,Wunderground v.1.15,2013-03-14 21:55:00,
2013-03-14 17:00:00,55.2,38.8,30.13,NNE,26,1.0,1.0,54,0.00,,,0.02,Wunderground v.1.15,2013-03-14 22:00:00,
2013-03-14 17:10:00,55.2,38.8,30.12,ENE,60,1.0,2.0,54,0.00,,,0.02,Wunderground v.1.15,2013-03-14 22:10:00,
2013-03-14 17:25:00,54.7,38.8,30.13,NNW,337,1.0,1.0,55,0.00,,,0.02,Wunderground v.1.15,2013-03-14 22:25:00,
2013-03-14 17:40:00,55.0,39.6,30.14,North,352,1.0,1.0,56,0.00,,,0.02,Wunderground v.1.15,2013-03-14 22:40:00,
2013-03-14 17:45:00,54.7,39.3,30.14,NNW,340,1.0,2.0,56,0.00,,,0.02,Wunderground v.1.15,2013-03-14 22:45:00,
2013-03-14 17:50:00,54.3,38.9,30.14,NW,316,2.0,2.0,56,0.00,,,0.02,Wunderground v.1.15,2013-03-14 22:50:00,
2013-03-14 18:00:00,54.0,39.1,30.14,NW,322,1.0,1.0,57,0.00,,,0.02,Wunderground v.1.15,2013-03-14 23:00:00,
2013-03-14 18:10:00,53.7,39.3,30.15,NNW,347,1.0,1.0,58,0.00,,,0.02,Wunderground v.1.15,2013-03-14 23:10:00,
2013-03-14 18:15:00,53.4,39.4,30.14,NNE,16,1.0,3.0,59,0.00,,,0.02,Wunderground v.1.15,2013-03-14 23:15:00,
2013-03-14 18:25:00,52.9,39.4,30.15,NW,311,1.0,1.0,60,0.00,,,0.02,Wunderground v.1.15,2013-03-14 23:25:00,
2013-03-14 18:30:00,52.5,39.4,30.15,NNE,27,1.0,1.0,61,0.00,,,0.02,Wunderground v.1.15,2013-03-14 23:30:00,
2013-03-14 18:40:00,51.8,39.6,30.15,NNE,32,0.0,0.0,63,0.00,,,0.02,Wunderground v.1.15,2013-03-14 23:40:00,
2013-03-14 18:45:00,51.4,39.2,30.14,ENE,58,0.0,1.0,63,0.00,,,0.02,Wunderground v.1.15,2013-03-14 23:45:00,
2013-03-14 18:55:00,50.9,39.1,30.15,NE,46,0.0,0.0,64,0.00,,,0.02,Wunderground v.1.15,2013-03-14 23:55:00,
2013-03-14 19:05:00,50.5,39.6,30.14,NE,45,0.0,0.0,66,0.00,,,0.02,Wunderground v.1.15,2013-03-15 00:05:00,
2013-03-14 19:10:00,50.1,39.2,30.14,NE,46,0.0,0.0,66,0.00,,,0.02,Wunderground v.1.15,2013-03-15 00:10:00,
2013-03-14 19:25:00,49.1,39.0,30.14,NE,47,0.0,0.0,68,0.00,,,0.02,Wunderground v.1.15,2013-03-15 00:25:00,
2013-03-14 19:30:00,48.8,39.1,30.14,NE,49,0.0,0.0,69,0.00,,,0.02,Wunderground v.1.15,2013-03-15 00:30:00,
2013-03-14 19:40:00,48.5,38.8,30.14,NE,47,0.0,0.0,69,0.00,,,0.02,Wunderground v.1.15,2013-03-15 00:40:00,
2013-03-14 19:45:00,48.3,39.0,30.14,NE,49,0.0,0.0,70,0.00,,,0.02,Wunderground v.1.15,2013-03-15 00:45:00,
2013-03-14 19:55:00,48.0,38.7,30.14,NE,47,0.0,0.0,70,0.00,,,0.02,Wunderground v.1.15,2013-03-15 00:55:00,
2013-03-14 20:10:00,47.5,38.6,30.14,NE,46,0.0,0.0,71,0.00,,,0.02,Wunderground v.1.15,2013-03-15 01:10:00,
2013-03-14 20:15:00,47.6,38.7,30.14,NE,46,0.0,0.0,71,0.00,,,0.02,Wunderground v.1.15,2013-03-15 01:15:00,
2013-03-14 20:25:00,48.0,38.7,30.13,NE,46,0.0,0.0,70,0.00,,,0.02,Wunderground v.1.15,2013-03-15 01:25:00,
2013-03-14 20:35:00,47.5,38.6,30.13,NE,46,0.0,0.0,71,0.00,,,0.02,Wunderground v.1.15,2013-03-15 01:35:00,
2013-03-14 20:40:00,47.2,38.3,30.13,NE,46,0.0,0.0,71,0.00,,,0.02,Wunderground v.1.15,2013-03-15 01:40:00,
2013-03-14 20:50:00,46.8,38.2,30.12,ENE,70,0.0,0.0,72,0.00,,,0.02,Wunderground v.1.15,2013-03-15 01:50:00,
2013-03-14 21:00:00,46.3,37.8,30.12,ENE,70,0.0,0.0,72,0.00,,,0.02,Wunderground v.1.15,2013-03-15 02:00:00,
2013-03-14 21:05:00,46.1,37.9,30.12,ENE,70,0.0,0.0,73,0.00,,,0.02,Wunderground v.1.15,2013-03-15 02:05:00,
2013-03-14 21:15:00,46.1,37.9,30.12,ENE,70,0.0,0.0,73,0.00,,,0.02,Wunderground v.1.15,2013-03-15 02:15:00,
2013-03-14 21:20:00,46.1,37.9,30.12,ENE,70,0.0,0.0,73,0.00,,,0.02,Wunderground v.1.15,2013-03-15 02:20:00,
2013-03-14 21:30:00,46.4,38.2,30.12,ENE,70,0.0,1.0,73,0.00,,,0.02,Wunderground v.1.15,2013-03-15 02:30:00,
2013-03-14 21:35:00,46.4,38.2,30.12,ENE,70,0.0,1.0,73,0.00,,,0.02,Wunderground v.1.15,2013-03-15 02:35:00,
2013-03-14 21:45:00,46.4,38.2,30.12,ENE,70,0.0,1.0,73,0.00,,,0.02,Wunderground v.1.15,2013-03-15 02:45:00,
2013-03-14 21:50:00,46.0,37.8,30.12,ENE,71,0.0,0.0,73,0.00,,,0.02,Wunderground v.1.15,2013-03-15 02:50:00,
2013-03-14 22:00:00,45.6,37.4,30.11,ENE,75,0.0,0.0,73,0.00,,,0.02,Wunderground v.1.15,2013-03-15 03:00:00,
2013-03-14 22:10:00,45.5,37.3,30.12,ENE,75,0.0,0.0,73,0.00,,,0.02,Wunderground v.1.15,2013-03-15 03:10:00,
2013-03-14 22:20:00,45.1,37.3,30.11,ENE,75,0.0,1.0,74,0.00,,,0.02,Wunderground v.1.15,2013-03-15 03:20:00,
2013-03-14 22:25:00,44.8,37.0,30.11,ENE,75,0.0,1.0,74,0.00,,,0.02,Wunderground v.1.15,2013-03-15 03:25:00,
2013-03-14 22:35:00,43.6,36.5,30.11,East,79,0.0,0.0,76,0.00,,,0.02,Wunderground v.1.15,2013-03-15 03:35:00,
2013-03-14 22:40:00,43.2,36.5,30.11,East,79,0.0,0.0,77,0.00,,,0.02,Wunderground v.1.15,2013-03-15 03:40:00,
2013-03-14 22:50:00,42.5,36.1,30.10,East,79,0.0,0.0,78,0.00,,,0.02,Wunderground v.1.15,2013-03-15 03:50:00,
2013-03-14 23:00:00,42.1,36.4,30.10,East,84,0.0,0.0,80,0.00,,,0.02,Wunderground v.1.15,2013-03-15 04:00:00,
2013-03-14 23:05:00,42.0,36.3,30.09,East,84,0.0,0.0,80,0.00,,,0.02,Wunderground v.1.15,2013-03-15 04:05:00,
2013-03-14 23:15:00,42.0,36.6,30.09,East,84,0.0,0.0,81,0.00,,,0.02,Wunderground v.1.15,2013-03-15 04:15:00,
2013-03-14 23:20:00,41.8,36.1,30.09,East,101,0.0,0.0,80,0.00,,,0.02,Wunderground v.1.15,2013-03-15 04:20:00,
2013-03-14 23:25:00,41.5,36.1,30.08,East,101,0.0,0.0,81,0.00,,,0.02,Wunderground v.1.15,2013-03-15 04:25:00,
2013-03-14 23:35:00,41.7,36.3,30.08,East,101,0.0,0.0,81,0.00,,,0.02,Wunderground v.1.15,2013-03-15 04:35:00,
2013-03-14 23:45:00,41.3,35.9,30.08,ESE,102,0.0,0.0,81,0.00,,,0.02,Wunderground v.1.15,2013-03-15 04:45:00,
2013-03-14 23:50:00,41.0,35.9,30.09,East,101,0.0,0.0,82,0.00,,,0.02,Wunderground v.1.15,2013-03-15 04:50:00,
2013-03-14 23:56:00,40.8,35.7,30.09,SW,215,0.0,0.0,82,0.00,,,0.02,Wunderground v.1.15,2013-03-15 04:56:00,